Lytton, British Columbia

1:27 PM PST on November 23, 2017 (GMT -0800)
Lytton

Weather History for CWLY - May, 2014

Change the Weather History Date:

Saturday, May 3, 2014

  Actual Average Record
Temperature  
Mean Temperature 56 °F -  
Max Temperature 64 °F 68 °F 82 °F (2016)
Min Temperature 48 °F 47 °F 32 °F (2006)
Degree Days  
Heating Degree Days 9    
Growing Degree Days 6 (Base 50)    
Moisture  
Dew Point 39 °F    
Average Humidity 57    
Maximum Humidity 87    
Minimum Humidity 32    
Precipitation  
Precipitation 0.00 in 0.02 in - ()
Sea Level Pressure  
Sea Level Pressure 29.73 in    
Wind  
Wind Speed 9 mph ()    
Max Wind Speed 26 mph    
Max Gust Speed 34 mph    
Visibility 9.0 miles    
Events Rain    
Averages and records for this station are not official NWS values.
T = Trace of Precipitation, MM = Missing Value Source: Averaged Metar Reports

Daily Weather History Graph

Daily Weather History Graph

Search for Another Location

Airport or City:

Trip Planner

Search our weather history database for the weather conditions in past years. The results will help you decide how hot, cold, wet, or windy it might be!

Date:

Astronomy

May. 03, 2014 Rise Set
Actual Time 5:38 AM PDT 8:29 PM PDT
Civil Twilight 5:01 AM PDT 9:06 PM PDT
Nautical Twilight 4:13 AM PDT 9:54 PM PDT
Astronomical Twilight 3:14 AM PDT 10:54 PM PDT
Moon 9:07 AM PDT (5/3) No Moon Set
Length of Visible Light 16h 05m
Length of Day
14h 50m
Waxing Crescent, 20% of the Moon is Illuminated
May 3
Waxing Crescent
May 6
First Quarter
May 14
Full
May 21
Last Quarter
May 28
New

Hourly Weather History & Observations

Time (PDT) Temp. Dew Point Humidity Pressure Visibility Wind Dir Wind Speed Gust Speed Precip Events Conditions
12:00 AM 64.4 °F 41.0 °F 42% 29.74 in 9.0 mi Variable 2.3 mph - N/A   Overcast
1:00 AM 60.8 °F 41.0 °F 48% 29.73 in 9.0 mi North 9.2 mph - N/A   Overcast
1:11 AM 60.8 °F 42.8 °F 52% 29.73 in 9.0 mi NNE 10.4 mph 20.7 mph N/A Rain Light Rain
1:28 AM 59.0 °F 41.0 °F 51% 29.74 in 9.0 mi NNE 8.1 mph 18.4 mph N/A   Overcast
2:00 AM 59.0 °F 41.0 °F 51% 29.73 in 9.0 mi North 10.4 mph - N/A   Overcast
3:00 AM 55.4 °F 41.0 °F 58% 29.73 in 9.0 mi NNE 12.7 mph 19.6 mph N/A   Overcast
3:24 AM 55.4 °F 41.0 °F 58% 29.73 in 9.0 mi North 6.9 mph 17.3 mph N/A Rain Light Rain
3:37 AM 55.4 °F 41.0 °F 58% 29.73 in 9.0 mi NNE 11.5 mph 18.4 mph N/A   Overcast
3:47 AM 55.4 °F 41.0 °F 58% 29.73 in 9.0 mi North 8.1 mph 18.4 mph N/A Rain Light Rain
4:00 AM 53.6 °F 41.0 °F 62% 29.73 in 9.0 mi North 12.7 mph 19.6 mph N/A Rain Light Rain
5:00 AM 50.0 °F 44.6 °F 82% 29.72 in 9.0 mi Calm Calm - N/A Rain Light Rain
5:02 AM 50.0 °F 44.6 °F 82% 29.72 in 9.0 mi Calm Calm - N/A   Overcast
5:22 AM 50.0 °F 46.4 °F 87% 29.72 in 9.0 mi Variable 2.3 mph - N/A Rain Light Rain
5:35 AM 50.0 °F 42.8 °F 76% 29.71 in 9.0 mi Variable 4.6 mph - N/A   Mostly Cloudy
6:00 AM 50.0 °F 42.8 °F 76% 29.71 in 9.0 mi Variable 8.1 mph - N/A   Mostly Cloudy
7:00 AM 48.2 °F 42.8 °F 82% 29.72 in 9.0 mi NNE 5.8 mph - N/A   Mostly Cloudy
7:54 AM 51.8 °F 42.8 °F 71% 29.71 in 9.0 mi SSW 17.3 mph 26.5 mph N/A   Clear
8:00 AM 51.8 °F 42.8 °F 71% 29.71 in 9.0 mi SSW 17.3 mph 31.1 mph N/A   Clear
9:00 AM 51.8 °F 41.0 °F 67% 29.70 in 9.0 mi SSW 15.0 mph 29.9 mph N/A   Mostly Cloudy
9:51 AM 53.6 °F 39.2 °F 58% 29.69 in 9.0 mi South 26.5 mph 34.5 mph N/A   Scattered Clouds
10:00 AM 55.4 °F 39.2 °F 54% 29.68 in 9.0 mi South 24.2 mph 34.5 mph N/A   Partly Cloudy
11:00 AM 55.4 °F 39.2 °F 54% 29.70 in 9.0 mi SSW 18.4 mph 31.1 mph N/A   Clear
11:37 AM 57.2 °F 39.2 °F 51% 29.69 in 9.0 mi South 19.6 mph 29.9 mph N/A Rain Light Rain
11:49 AM 57.2 °F 37.4 °F 48% 29.70 in 9.0 mi SSW 17.3 mph 27.6 mph N/A   Partly Cloudy
12:00 PM 57.2 °F 35.6 °F 44% 29.70 in 9.0 mi South 18.4 mph 31.1 mph N/A   Partly Cloudy
1:00 PM 60.8 °F 32.0 °F 34% 29.70 in 9.0 mi South 17.3 mph 29.9 mph N/A   Partly Cloudy
2:00 PM 60.8 °F 32.0 °F 34% 29.70 in 9.0 mi South 12.7 mph 26.5 mph N/A   Partly Cloudy
3:00 PM 59.0 °F 41.0 °F 51% 29.72 in 9.0 mi Variable 8.1 mph 17.3 mph N/A   Mostly Cloudy
3:49 PM 62.6 °F 32.0 °F 32% 29.71 in 9.0 mi South 19.6 mph 26.5 mph N/A   Mostly Cloudy
4:00 PM 62.6 °F 32.0 °F 32% 29.71 in 9.0 mi South 18.4 mph 29.9 mph N/A   Mostly Cloudy
5:00 PM 60.8 °F 35.6 °F 39% 29.72 in 9.0 mi SSW 9.2 mph 21.9 mph N/A   Scattered Clouds
6:00 PM 57.2 °F 39.2 °F 51% 29.73 in 9.0 mi North 15.0 mph - N/A   Mostly Cloudy
7:00 PM 55.4 °F 37.4 °F 51% 29.75 in 9.0 mi North 10.4 mph 17.3 mph N/A   Overcast
8:00 PM 53.6 °F 37.4 °F 54% 29.76 in 9.0 mi NNE 9.2 mph 19.6 mph N/A   Overcast
9:00 PM 51.8 °F 35.6 °F 54% 29.78 in 9.0 mi North 10.4 mph 17.3 mph N/A   Overcast
10:00 PM 51.8 °F 35.6 °F 54% 29.78 in 9.0 mi North 9.2 mph - N/A   Overcast
10:08 PM 51.8 °F 35.6 °F 54% 29.79 in 9.0 mi North 6.9 mph - N/A Rain Light Rain
10:57 PM 50.0 °F 37.4 °F 62% 29.79 in 9.0 mi North 9.2 mph 18.4 mph N/A   Overcast
11:00 PM 50.0 °F 39.2 °F 66% 29.79 in 9.0 mi North 5.8 mph 18.4 mph N/A   Overcast
11:10 PM 48.2 °F 39.2 °F 71% 29.79 in 9.0 mi North 16.1 mph 24.2 mph N/A Rain Light Rain